• în Republica Moldova
  • Lista ţărilor
  • Pe 7 zile
  • Temperatura apei
  • Hartă satelitară
  • Meteo pe hartă
  • Widget-uri
  • user-avatar
    Intrare

    Meteo pe oră la Gjirokaster

    Astăzi, 29 Aprilie, Sâmbătă

    Timp Temperatura Precipitaţii Vânt Presiune Umiditate
    00:00 +8°C° 0 mm 3 m/s 650 mmHg 49%
    01:00 +8°C° 0 mm 3 m/s 650 mmHg 46%
    02:00 +8°C° 0 mm 3 m/s 650 mmHg 45%
    03:00 +8°C° 0 mm 2 m/s 650 mmHg 44%
    04:00 +8°C° 0 mm 2 m/s 649 mmHg 42%
    05:00 +9°C° 0 mm 2 m/s 649 mmHg 41%
    06:00 +12°C° 0 mm 2 m/s 650 mmHg 41%
    07:00 +12°C° 0 mm 3 m/s 650 mmHg 40%
    08:00 +13°C° 0 mm 3 m/s 650 mmHg 36%
    09:00 +16°C° 0 mm 3 m/s 650 mmHg 31%
    10:00 +17°C° 0 mm 3 m/s 651 mmHg 27%
    11:00 +17°C° 0 mm 3 m/s 650 mmHg 31%
    12:00 +16°C° 0 mm 3 m/s 650 mmHg 35%
    13:00 +16°C° 0 mm 3 m/s 650 mmHg 39%
    14:00 +16°C° 0 mm 3 m/s 649 mmHg 39%
    15:00 +16°C° 0 mm 3 m/s 649 mmHg 38%
    16:00 +17°C° 0 mm 2 m/s 649 mmHg 38%
    17:00 +13°C° 0 mm 3 m/s 648 mmHg 46%
    18:00 +11°C° 0 mm 3 m/s 647 mmHg 54%
    19:00 +8°C° 0 mm 3 m/s 647 mmHg 62%
    20:00 +8°C° 0 mm 2 m/s 647 mmHg 62%
    21:00 +7°C° 0 mm 2 m/s 647 mmHg 63%
    22:00 +7°C° 0 mm 2 m/s 647 mmHg 63%
    23:00 +7°C° 0 mm 2 m/s 647 mmHg 65%

    Mâine, 30 Aprilie, Duminică

    Timp Temperatura Precipitaţii Vânt Presiune Umiditate
    00:00 +6°C° 0 mm 2 m/s 647 mmHg 66%
    01:00 +5°C° 0 mm 3 m/s 646 mmHg 68%
    02:00 +5°C° 0 mm 3 m/s 646 mmHg 70%
    03:00 +4°C° 0 mm 3 m/s 646 mmHg 73%
    04:00 +4°C° 0 mm 3 m/s 646 mmHg 75%
    05:00 +7°C° 0 mm 3 m/s 647 mmHg 70%
    06:00 +9°C° 0 mm 3 m/s 647 mmHg 66%
    07:00 +11°C° 0 mm 3 m/s 648 mmHg 62%
    08:00 +13°C° 0 mm 3 m/s 649 mmHg 56%
    09:00 +14°C° 0 mm 4 m/s 649 mmHg 51%
    10:00 +17°C° 0 mm 4 m/s 650 mmHg 46%
    11:00 +17°C° 0,4 mm 4 m/s 649 mmHg 48%
    12:00 +17°C° 0,4 mm 4 m/s 649 mmHg 51%
    13:00 +16°C° 0,4 mm 5 m/s 649 mmHg 54%
    14:00 +15°C° 0,9 mm 5 m/s 649 mmHg 58%
    15:00 +14°C° 0,9 mm 4 m/s 649 mmHg 63%
    16:00 +13°C° 0,9 mm 4 m/s 648 mmHg 68%
    17:00 +12°C° 0,6 mm 4 m/s 648 mmHg 74%
    18:00 +10°C° 0,6 mm 4 m/s 648 mmHg 80%
    19:00 +7°C° 0,6 mm 4 m/s 648 mmHg 87%
    20:00 +8°C° 0,2 mm 3 m/s 648 mmHg 88%
    21:00 +7°C° 0,2 mm 3 m/s 648 mmHg 88%
    22:00 +7°C° 0,2 mm 3 m/s 648 mmHg 89%
    23:00 +7°C° 0 mm 3 m/s 648 mmHg 90%

    Poimâine, 1 Mai, Luni

    Timp Temperatura Precipitaţii Vânt Presiune Umiditate
    00:00 +5°C° 0 mm 3 m/s 648 mmHg 91%
    01:00 +5°C° 0 mm 3 m/s 648 mmHg 91%
    02:00 +5°C° 0 mm 3 m/s 648 mmHg 91%
    03:00 +6°C° 0 mm 2 m/s 648 mmHg 91%
    04:00 +6°C° 0 mm 2 m/s 648 mmHg 91%
    05:00 +7°C° 0 mm 2 m/s 648 mmHg 86%
    06:00 +9°C° 0 mm 2 m/s 649 mmHg 80%
    07:00 +10°C° 0 mm 2 m/s 649 mmHg 75%
    08:00 +13°C° 0,2 mm 2 m/s 650 mmHg 69%
    09:00 +13°C° 0,2 mm 3 m/s 650 mmHg 63%
    10:00 +16°C° 0,2 mm 3 m/s 651 mmHg 56%
    11:00 +16°C° 0,8 mm 3 m/s 651 mmHg 59%
    12:00 +16°C° 0,8 mm 3 m/s 651 mmHg 61%
    13:00 +16°C° 0,8 mm 3 m/s 651 mmHg 64%
    14:00 +14°C° 0,7 mm 3 m/s 650 mmHg 67%
    15:00 +14°C° 0,7 mm 3 m/s 650 mmHg 69%
    16:00 +13°C° 0,7 mm 3 m/s 650 mmHg 72%
    17:00 +11°C° 0,3 mm 3 m/s 650 mmHg 79%
    18:00 +10°C° 0,3 mm 3 m/s 649 mmHg 86%
    19:00 +8°C° 0,3 mm 2 m/s 649 mmHg 92%
    20:00 +7°C° 0,1 mm 2 m/s 649 mmHg 93%
    21:00 +6°C° 0,1 mm 2 m/s 649 mmHg 93%
    22:00 +7°C° 0,1 mm 1 m/s 649 mmHg 94%
    23:00 +6°C° 0 mm 1 m/s 649 mmHg 94%

    2 Mai, Marţi

    Timp Temperatura Precipitaţii Vânt Presiune Umiditate
    00:00 +6°C° 0 mm 1 m/s 649 mmHg 94%
    01:00 +6°C° 0 mm 1 m/s 649 mmHg 94%
    02:00 +5°C° 0 mm 1 m/s 649 mmHg 94%
    03:00 +5°C° 0 mm 1 m/s 648 mmHg 94%
    04:00 +5°C° 0 mm 1 m/s 648 mmHg 95%
    05:00 +7°C° 0 mm 1 m/s 649 mmHg 89%
    06:00 +10°C° 0 mm 1 m/s 650 mmHg 83%
    07:00 +12°C° 0 mm 1 m/s 651 mmHg 78%
    08:00 +14°C° 0 mm 1 m/s 651 mmHg 70%
    09:00 +15°C° 0 mm 1 m/s 651 mmHg 62%
    10:00 +17°C° 0 mm 2 m/s 652 mmHg 54%
    11:00 +17°C° 0,2 mm 2 m/s 652 mmHg 54%
    12:00 +17°C° 0,2 mm 2 m/s 652 mmHg 54%
    13:00 +17°C° 0,2 mm 3 m/s 652 mmHg 55%
    14:00 +17°C° 0,3 mm 3 m/s 651 mmHg 55%
    15:00 +16°C° 0,3 mm 3 m/s 651 mmHg 56%
    16:00 +14°C° 0,3 mm 3 m/s 651 mmHg 57%
    17:00 +13°C° 0,1 mm 2 m/s 651 mmHg 64%
    18:00 +10°C° 0,1 mm 2 m/s 650 mmHg 70%
    19:00 +7°C° 0,1 mm 2 m/s 650 mmHg 77%
    20:00 +7°C° 0 mm 2 m/s 650 mmHg 78%
    21:00 +7°C° 0 mm 1 m/s 650 mmHg 79%
    22:00 +6°C° 0 mm 1 m/s 650 mmHg 79%
    23:00 +6°C° 0 mm 1 m/s 650 mmHg 80%

    3 Mai, Miercuri

    Timp Temperatura Precipitaţii Vânt Presiune Umiditate
    00:00 +6°C° 0 mm 1 m/s 650 mmHg 80%
    01:00 +5°C° 0 mm 1 m/s 649 mmHg 81%
    02:00 +5°C° 0 mm 1 m/s 649 mmHg 83%
    03:00 +5°C° 0 mm 1 m/s 649 mmHg 84%
    04:00 +4°C° 0 mm 1 m/s 649 mmHg 86%
    05:00 +7°C° 0 mm 1 m/s 650 mmHg 79%
    06:00 +10°C° 0 mm 1 m/s 651 mmHg 72%
    07:00 +12°C° 0 mm 1 m/s 652 mmHg 64%
    08:00 +14°C° 0 mm 1 m/s 652 mmHg 58%
    09:00 +15°C° 0 mm 2 m/s 652 mmHg 52%
    10:00 +17°C° 0 mm 2 m/s 653 mmHg 46%
    11:00 +17°C° 0 mm 2 m/s 653 mmHg 45%
    12:00 +17°C° 0 mm 3 m/s 653 mmHg 44%
    13:00 +18°C° 0 mm 3 m/s 652 mmHg 43%
    14:00 +17°C° 0 mm 3 m/s 652 mmHg 46%
    15:00 +16°C° 0 mm 3 m/s 652 mmHg 48%
    16:00 +16°C° 0 mm 3 m/s 652 mmHg 51%
    17:00 +12°C° 0 mm 3 m/s 651 mmHg 62%
    18:00 +10°C° 0 mm 2 m/s 651 mmHg 73%
    19:00 +7°C° 0 mm 2 m/s 650 mmHg 84%
    20:00 +6°C° 0 mm 2 m/s 650 mmHg 86%
    21:00 +7°C° 0 mm 1 m/s 650 mmHg 88%
    22:00 +6°C° 0 mm 1 m/s 650 mmHg 90%
    23:00 +5°C° 0 mm 1 m/s 650 mmHg 90%

    4 Mai, Joi

    Timp Temperatura Precipitaţii Vânt Presiune Umiditate
    00:00 +5°C° 0 mm 1 m/s 650 mmHg 90%
    01:00 +5°C° 0 mm 1 m/s 649 mmHg 91%
    02:00 +4°C° 0 mm 1 m/s 649 mmHg 91%
    03:00 +4°C° 0 mm 1 m/s 649 mmHg 91%
    04:00 +4°C° 0 mm 1 m/s 649 mmHg 91%
    05:00 +6°C° 0 mm 1 m/s 650 mmHg 81%
    06:00 +9°C° 0 mm 1 m/s 650 mmHg 72%
    07:00 +11°C° 0 mm 0 m/s 651 mmHg 63%
    08:00 +13°C° 0 mm 1 m/s 652 mmHg 57%
    09:00 +14°C° 0 mm 2 m/s 652 mmHg 51%
    10:00 +16°C° 0 mm 2 m/s 652 mmHg 44%
    11:00 +16°C° 0 mm 2 m/s 652 mmHg 44%
    12:00 +17°C° 0 mm 3 m/s 652 mmHg 43%
    13:00 +17°C° 0 mm 3 m/s 652 mmHg 43%
    14:00 +16°C° 0 mm 3 m/s 652 mmHg 45%
    15:00 +16°C° 0 mm 3 m/s 652 mmHg 48%
    16:00 +15°C° 0 mm 2 m/s 651 mmHg 51%
    17:00 +13°C° 0 mm 2 m/s 651 mmHg 62%
    18:00 +10°C° 0 mm 1 m/s 650 mmHg 72%
    19:00 +8°C° 0 mm 1 m/s 650 mmHg 83%
    20:00 +7°C° 0 mm 1 m/s 650 mmHg 85%
    21:00 +6°C° 0 mm 1 m/s 650 mmHg 87%
    22:00 +5°C° 0 mm 0 m/s 650 mmHg 89%
    23:00 +4°C° 0 mm 0 m/s 650 mmHg 89%
    Arată mai mult